Theta_e
326 320 319 323 331 330 334 334 336 334 333 333 338 340 335 332 332 330 330 329 325 326 326 325 325 323 323 322 321 320 318 315 315 314 313 314 314 314 314 313 313 314 313 311
325 325 330 328 327 328 332 331 334 333 333 334 330 330 334 331 333 331 331 329 327 327 327 325 325 324 323 323 321 318 318 316 316 315 313 311 313 311 312 312 312 311 311 311
329 331 331 329 328 329 329 329 328 329 329 334 333 333 331 332 332 331 332 330 329 327 326 324 323 322 321 320 318 318 318 316 315 313 310 311 311 311 312 311 311 311 312 311
330 330 328 327 330 328 328 330 331 330 328 329 333 338 335 330 329 332 331 328 326 325 323 322 320 319 320 317 317 316 315 314 312 310 310 311 312 311 311 311 312 312 312 312
330 331 330 329 329 329 329 327 328 328 327 331 336 339 336 329 330 332 330 326 325 323 322 320 320 319 318 318 318 315 314 312 311 310 311 310 309 309 310 310 310 311 310 310
331 332 331 331 331 329 328 328 327 326 325 335 336 336 336 335 334 330 324 323 323 322 322 321 321 318 316 316 315 314 313 311 311 311 310 309 309 309 309 308 308 307 308 309
334 333 332 331 332 329 328 325 326 325 325 337 334 333 335 333 331 329 325 324 324 322 321 320 319 316 315 314 313 312 312 312 311 309 308 308 308 307 306 306 306 307 307 309
331 337 333 333 332 330 327 324 323 325 326 327 334 339 332 330 330 329 327 324 323 322 320 318 316 315 314 313 313 312 311 311 308 308 308 308 306 306 306 305 305 305 307 307
332 335 333 332 329 326 327 326 325 324 324 333 335 332 331 330 329 327 324 322 321 319 316 315 314 313 311 311 310 309 309 308 308 308 307 307 305 305 305 304 304 304 306 308
333 333 331 327 331 328 326 326 327 326 332 335 334 330 333 330 326 322 323 320 319 318 314 313 312 311 310 309 309 307 308 308 308 307 307 306 304 305 305 304 304 305 307 308
331 330 330 328 329 327 325 325 327 327 330 333 334 332 326 325 322 319 319 318 316 314 313 312 311 310 309 308 308 307 308 307 308 307 307 306 306 305 305 304 304 305 307 308
331 329 335 330 330 328 325 325 326 328 330 329 329 331 324 323 322 320 319 318 314 313 312 311 310 309 308 307 307 307 308 308 309 308 307 307 306 306 306 306 305 306 305 306
331 332 328 331 330 330 327 324 325 324 325 328 329 331 323 322 320 319 319 317 313 312 312 311 310 308 307 307 307 308 308 309 308 307 307 307 307 306 306 306 305 305 305 306
331 331 331 329 329 327 328 325 324 323 322 328 329 329 326 321 319 319 315 314 313 312 311 310 309 308 307 308 308 307 309 308 309 309 308 307 308 308 306 306 306 306 306 307
331 335 330 327 325 325 325 325 324 323 323 327 326 324 322 319 318 318 316 313 312 311 311 310 309 309 308 307 308 309 308 308 308 308 308 308 309 308 308 308 308 308 306 306
331 330 333 331 329 328 327 324 324 325 323 321 322 322 322 320 319 317 315 314 312 311 311 310 309 309 308 308 308 309 309 308 309 308 309 310 310 308 308 309 309 308 308 307
330 329 333 332 330 329 328 325 323 323 321 320 320 319 320 320 318 316 314 313 312 311 311 311 310 309 308 309 308 309 309 309 309 309 310 310 309 310 310 310 307 307 309 309
331 333 333 332 332 332 327 323 324 326 324 322 320 319 319 316 314 314 313 312 312 311 310 309 310 309 309 308 309 308 310 309 309 309 310 310 309 308 309 307 309 311 311 311
331 330 329 331 332 329 329 326 323 326 324 321 321 319 319 316 314 313 313 312 311 311 311 310 309 309 309 309 308 309 310 309 309 309 310 310 308 307 309 310 311 311 311 311
329 328 331 330 331 333 328 324 322 325 327 321 319 319 318 317 314 313 312 312 311 311 310 309 308 309 309 308 308 310 310 309 309 310 311 310 310 310 311 312 312 311 308 308
331 328 331 329 331 331 326 323 323 324 324 320 317 317 316 316 315 313 312 311 311 311 309 309 309 309 310 310 310 310 310 311 310 311 311 310 310 310 310 311 311 311 311 312
330 331 330 329 330 332 323 323 324 323 319 318 316 316 315 314 314 313 312 311 311 311 310 310 309 310 311 310 311 310 311 310 310 311 312 311 311 309 308 306 310 311 311 311
330 330 328 327 327 325 322 321 320 319 317 316 315 315 315 314 314 313 312 312 311 311 311 310 309 311 312 310 311 311 311 311 311 312 311 311 310 310 309 306 302 308 310 310
328 325 326 324 326 323 322 321 320 318 316 314 315 315 315 314 313 313 313 312 312 310 310 310 311 312 312 311 311 311 311 310 312 312 312 312 312 312 312 310 306 303 304 306
328 327 325 324 325 322 321 320 320 318 315 314 314 314 314 313 312 313 313 313 312 311 311 311 312 311 311 311 311 310 311 312 312 313 312 311 311 311 312 311 310 307 306 304
327 328 326 325 323 322 320 319 319 318 315 314 314 314 314 313 313 313 312 311 312 312 311 312 311 312 312 312 311 311 311 312 312 311 311 312 312 312 313 312 312 310 307 305
Wind_Speed
16 3 7 12 4 7 19 11 11 11 12 6 23 19 24 26 14 17 12 13 12 14 14 12 10 9 7 7 6 10 14 18 18 12 15 15 15 17 9 10 10 8 13 19
5 5 6 8 10 4 8 5 4 5 6 17 23 20 14 13 14 10 15 13 11 10 10 7 7 7 7 5 7 13 13 12 12 11 20 20 16 16 16 17 14 14 14 15
6 5 6 4 6 9 7 7 7 6 2 16 21 12 6 8 10 7 12 13 14 13 10 8 7 6 4 7 11 11 7 8 13 21 23 19 17 13 15 17 14 16 15 11
6 7 2 6 9 8 7 8 9 10 8 5 1 5 7 5 5 7 16 16 15 12 9 7 5 8 8 9 7 11 9 15 19 22 24 22 19 19 17 17 17 15 9 8
8 16 14 12 6 4 5 11 10 14 12 5 5 7 3 5 3 3 13 16 14 9 7 4 8 11 10 8 9 11 14 18 24 21 19 21 20 16 12 12 12 10 8 14
6 15 7 1 13 10 9 11 10 6 5 5 8 7 7 4 3 6 16 15 10 5 3 3 9 10 10 7 9 10 16 22 21 21 22 21 16 16 16 17 16 14 10 10
2 5 5 10 9 10 10 8 4 6 5 3 4 12 3 5 6 15 14 12 7 12 13 8 9 9 11 13 13 15 19 20 21 21 19 21 21 18 17 16 16 14 11 11
6 3 2 3 3 4 6 6 3 4 3 3 9 6 1 4 15 18 14 14 12 8 5 8 7 12 18 13 11 14 17 19 20 19 20 21 20 21 20 17 16 12 10 10
5 7 5 7 5 7 6 5 5 1 6 6 4 3 3 5 11 16 15 16 10 11 13 16 19 19 16 16 19 23 20 20 19 21 21 22 22 17 16 17 16 11 7 8
6 3 6 11 5 10 7 5 7 5 3 4 4 2 2 4 8 11 14 13 11 13 17 18 15 12 13 17 19 22 17 16 18 23 25 22 21 19 17 18 13 11 10 8
5 5 7 6 5 6 6 6 6 2 5 3 2 1 4 7 13 10 15 15 14 18 19 16 15 14 17 21 16 17 16 18 19 23 23 19 17 18 22 17 14 12 10 12
6 2 3 6 8 7 8 7 5 4 2 4 4 1 7 16 17 21 15 10 15 12 12 14 13 16 18 19 16 15 17 18 20 21 25 20 18 16 15 18 14 12 9 8
5 3 3 3 8 6 6 7 7 5 6 5 4 3 13 19 20 17 10 17 20 15 13 13 13 16 19 16 13 13 13 18 19 20 21 22 24 19 19 16 14 11 9 9
7 3 1 3 3 2 6 8 7 6 4 9 6 8 4 9 7 12 21 22 19 17 15 11 14 15 15 13 14 12 16 19 17 20 20 20 23 20 19 16 14 14 12 10
4 4 6 5 6 6 9 13 14 10 9 6 5 8 7 8 13 16 13 21 17 16 14 11 13 12 12 13 13 15 14 17 18 20 19 21 17 18 19 20 19 17 12 8
2 3 5 2 7 19 17 15 13 12 12 11 8 5 14 19 17 14 19 18 17 14 11 8 10 10 13 12 12 13 15 16 18 18 18 18 18 19 17 18 18 18 15 16
2 2 3 4 3 5 8 11 12 13 11 8 7 4 11 14 18 18 20 18 15 12 10 12 10 10 10 8 10 12 12 14 17 16 21 17 19 14 17 18 18 21 22 19
3 3 3 4 1 5 4 11 14 17 13 12 9 9 20 22 21 19 15 14 11 9 9 9 7 8 7 8 10 12 10 11 13 15 17 20 19 19 16 17 19 21 22 21
7 3 1 3 4 6 13 9 3 3 6 10 8 15 16 20 23 18 11 11 8 8 8 9 7 6 7 8 10 10 11 12 10 12 16 17 15 17 18 16 17 15 16 17
13 12 2 2 5 4 4 13 23 8 4 15 17 16 13 10 4 3 9 7 7 8 7 7 9 7 6 8 9 11 9 10 11 9 14 13 14 16 19 19 17 16 16 22
4 6 7 5 4 4 7 21 9 7 4 17 17 15 12 9 8 10 4 6 5 6 7 6 6 7 9 11 10 11 9 9 9 11 13 14 13 15 17 17 18 19 18 14
2 2 3 5 5 3 14 9 6 2 17 15 15 12 16 17 12 7 4 3 2 4 4 5 1 5 7 8 8 8 10 9 8 10 10 11 13 14 14 12 11 13 14 13
4 3 3 4 3 11 12 17 14 13 14 11 8 6 14 12 7 3 4 1 2 3 2 5 4 5 7 8 7 5 6 6 9 10 10 9 11 11 12 16 10 5 7 9
6 17 4 5 6 17 14 13 11 9 7 6 8 6 6 9 4 3 0 3 3 4 2 5 4 6 6 5 5 4 6 8 5 6 7 8 6 7 9 13 17 16 9 6
7 4 3 4 10 15 11 8 6 6 8 6 6 4 7 5 4 3 3 3 2 4 1 2 2 4 2 4 6 6 6 6 5 6 7 8 9 9 11 9 9 12 15 17
15 7 3 1 10 8 6 5 5 5 5 4 4 3 4 3 3 1 4 1 1 2 4 2 1 4 2 3 3 4 4 6 4 5 5 8 9 13 12 13 10 7 9 14
Wind_Direction
241 142 228 248 221 276 136 150 179 232 250 49 96 85 67 90 122 133 129 131 139 118 102 89 101 73 54 41 48 15 6 9 6 29 11 358 350 336 1 4 352 326 317 310
284 230 336 333 340 315 109 85 202 169 219 106 87 85 93 106 117 141 148 151 146 119 103 110 99 64 62 55 7 5 7 16 10 4 355 352 328 317 322 318 329 326 329 330
156 210 245 318 30 27 60 36 351 327 297 98 117 82 71 70 104 144 133 126 132 132 113 115 105 90 50 351 18 21 9 6 346 348 353 345 333 321 321 322 316 320 316 312
130 199 243 324 52 44 360 6 336 326 334 250 248 107 52 73 53 66 111 112 120 128 120 102 73 355 49 56 42 357 354 353 355 355 348 343 348 339 325 322 318 318 323 307
41 42 30 41 7 343 13 359 344 318 305 110 19 82 79 354 68 126 122 126 124 137 128 64 54 44 53 42 7 3 358 352 346 345 347 344 342 343 340 336 332 326 315 308
79 64 57 194 346 43 14 12 326 3 3 62 347 110 34 18 121 110 121 130 140 147 55 56 37 54 43 12 0 337 340 346 349 348 346 344 347 347 343 334 328 324 309 306
49 36 343 10 356 7 7 25 326 11 2 81 117 62 100 155 110 136 140 148 106 84 80 64 56 58 12 21 1 350 346 346 347 351 352 351 349 346 343 343 345 338 326 318
18 1 110 304 219 338 33 69 100 316 295 190 16 61 266 115 135 137 139 118 125 110 52 39 73 50 35 29 16 2 354 353 7 11 355 351 356 348 351 355 351 349 343 348
357 1 116 324 34 54 347 22 274 221 274 78 105 106 323 185 133 130 116 110 101 90 91 90 67 55 35 14 2 2 6 15 6 2 355 351 349 355 359 354 353 356 21 61
325 22 6 353 128 50 80 355 14 351 14 82 72 36 133 134 121 100 118 115 107 116 81 79 66 48 21 11 7 2 25 13 5 6 360 7 18 13 6 4 19 31 47 79
25 66 314 21 50 30 17 24 10 37 61 118 106 75 201 135 132 143 107 112 88 80 90 65 44 22 16 9 16 15 24 19 7 3 7 9 13 25 24 34 35 47 53 60
323 93 332 76 47 22 70 57 64 79 317 108 116 68 118 104 115 110 110 109 102 96 76 52 26 11 13 15 17 32 23 12 8 4 15 22 19 16 22 31 46 52 56 64
319 11 10 346 13 355 63 53 56 48 43 7 108 137 83 109 118 124 131 122 99 88 72 46 25 22 28 24 28 32 18 10 23 19 21 29 28 24 26 33 36 40 52 55
18 11 194 151 86 321 85 84 67 93 63 70 97 120 116 121 130 123 90 104 98 82 60 54 32 35 31 27 21 35 22 17 14 13 15 25 28 26 36 37 37 36 40 47
77 30 4 60 37 60 92 57 51 52 60 88 110 79 85 105 99 87 80 103 92 76 59 49 37 23 24 28 30 30 28 14 12 12 21 27 20 31 38 43 42 38 40 43
42 336 21 63 15 69 31 43 45 60 57 72 77 83 115 114 102 89 92 85 88 67 62 45 27 24 29 42 34 28 24 18 14 17 29 19 21 23 39 40 38 35 44 55
78 57 65 315 304 108 50 28 42 72 59 76 58 348 52 85 80 85 85 82 76 79 61 49 43 22 66 34 19 25 24 13 15 25 19 28 34 40 34 37 51 53 48 56
43 70 97 227 26 42 45 41 77 72 43 42 35 33 100 100 87 82 84 84 78 59 43 16 24 32 46 17 24 22 27 13 12 32 41 47 43 51 56 61 56 35 35 37
109 85 353 85 70 10 11 6 27 101 36 25 36 39 88 112 94 82 68 72 71 75 44 27 28 66 25 16 7 25 27 9 42 68 46 44 55 58 48 35 28 30 28 46
48 16 85 308 127 119 325 351 328 123 52 30 56 47 55 34 70 108 91 68 60 58 42 22 49 55 13 6 16 29 31 33 51 47 36 48 50 50 48 43 39 59 68 77
22 46 324 320 87 79 334 5 13 62 292 53 59 55 69 87 114 123 72 84 22 35 43 36 48 5 19 5 38 35 42 39 44 54 52 56 60 53 56 60 66 56 63 68
70 69 311 31 66 22 19 23 71 87 58 56 57 54 110 118 121 118 86 86 40 60 48 8 59 4 357 7 39 53 65 64 65 49 65 67 54 48 44 27 56 60 60 64
3 78 80 82 156 129 92 91 75 70 67 62 54 36 130 113 110 83 125 164 14 46 56 6 41 7 8 3 73 73 78 63 90 63 61 59 51 47 36 30 38 48 72 81
53 60 47 77 38 75 101 93 87 76 77 74 62 66 100 107 82 99 168 3 33 91 20 2 52 21 14 43 65 84 81 97 43 56 64 46 31 358 352 19 47 52 45 34
44 59 68 71 68 93 81 78 75 90 84 65 82 58 124 122 98 64 64 93 20 100 75 25 337 20 23 44 91 99 76 43 62 42 34 29 26 3 342 346 13 43 49 43
43 50 44 121 68 90 72 78 68 77 69 64 79 141 125 64 117 136 127 137 138 219 256 234 324 102 110 83 51 101 52 67 33 59 37 10 355 343 324 322 312 348 33 38